| time (UTC) | temp C | wind direction | speed KPH | gust KPH | rain 1hr cm | rain 24hr cm | rain mn cm | humidity % | barometer mb |
| 20260505022916 | 21 | 208 | 6.4 | 14.5 | 0.00 | 0.15 | 0.15 | 58 | 1004.4 |
| 20260505022414 | 21 | 246 | 8.0 | 14.5 | 0.00 | 0.15 | 0.15 | 58 | 1004.5 |
| 20260505021910 | 21 | 246 | 16.1 | 22.5 | 0.00 | 0.15 | 0.15 | 57 | 1004.3 |
| 20260505021407 | 21 | 237 | 8.0 | 14.5 | 0.00 | 0.15 | 0.15 | 57 | 1004.3 |
| 20260505020903 | 21 | 204 | 9.7 | 17.7 | 0.00 | 0.15 | 0.15 | 58 | 1004.2 |
| 20260505020358 | 21 | 253 | 6.4 | 11.3 | 0.00 | 0.15 | 0.15 | 58 | 1004.2 |
| 20260505015855 | 21 | 195 | 9.7 | 12.9 | 0.00 | 0.15 | 0.15 | 58 | 1004.1 |
| 20260505015352 | 21 | 288 | 4.8 | 11.3 | 0.00 | 0.15 | 0.15 | 57 | 1003.8 |
| 20260505014850 | 21 | 246 | 8.0 | 14.5 | 0.00 | 0.15 | 0.15 | 56 | 1004.1 |
| 20260505014347 | 22 | 230 | 6.4 | 9.7 | 0.00 | 0.15 | 0.15 | 55 | 1003.8 |
| 20260505013843 | 22 | 227 | 6.4 | 12.9 | 0.00 | 0.15 | 0.15 | 53 | 1003.9 |
| 20260505013340 | 23 | 177 | 9.7 | 14.5 | 0.00 | 0.15 | 0.15 | 50 | 1004.0 |
| 20260505012839 | 23 | 206 | 11.3 | 20.9 | 0.00 | 0.15 | 0.15 | 50 | 1004.0 |
| 20260505012337 | 23 | 218 | 14.5 | 17.7 | 0.00 | 0.15 | 0.15 | 51 | 1003.9 |
| 20260505011832 | 23 | 216 | 16.1 | 25.7 | 0.00 | 0.15 | 0.15 | 50 | 1003.7 |
| 20260505011329 | 23 | 211 | 11.3 | 20.9 | 0.00 | 0.15 | 0.15 | 49 | 1003.9 |
| 20260505010825 | 23 | 191 | 6.4 | 24.1 | 0.00 | 0.15 | 0.15 | 50 | 1003.7 |
| 20260505010321 | 23 | 210 | 12.9 | 16.1 | 0.00 | 0.15 | 0.15 | 49 | 1003.5 |
| 20260505005817 | 23 | 239 | 12.9 | 16.1 | 0.00 | 0.15 | 0.15 | 49 | 1003.7 |
| 20260505005315 | 23 | 242 | 8.0 | 11.3 | 0.00 | 0.15 | 0.15 | 49 | 1003.5 |
| 20260505004812 | 23 | 196 | 6.4 | 12.9 | 0.00 | 0.15 | 0.15 | 49 | 1003.4 |
| 20260505004308 | 23 | 250 | 9.7 | 14.5 | 0.00 | 0.15 | 0.15 | 48 | 1003.4 |
| 20260505003806 | 23 | 261 | 11.3 | 14.5 | 0.00 | 0.15 | 0.15 | 47 | 1003.5 |
| 20260505003303 | 24 | 173 | 8.0 | 22.5 | 0.00 | 0.15 | 0.15 | 47 | 1003.4 |
| 20260505002759 | 24 | 152 | 12.9 | 17.7 | 0.00 | 0.15 | 0.15 | 47 | 1003.4 |
| 20260505002256 | 24 | 201 | 9.7 | 16.1 | 0.00 | 0.15 | 0.15 | 47 | 1003.5 |
| 20260505001754 | 24 | 259 | 12.9 | 27.4 | 0.00 | 0.15 | 0.15 | 46 | 1003.3 |
| 20260505001251 | 24 | 223 | 16.1 | 25.7 | 0.00 | 0.15 | 0.15 | 46 | 1003.2 |
| 20260505000748 | 24 | 213 | 22.5 | 25.7 | 0.00 | 0.15 | 0.15 | 47 | 1003.1 |
| 20260505000246 | 23 | 199 | 16.1 | 20.9 | 0.00 | 0.15 | 0.15 | 49 | 1003.1 |
| 20260504235742 | 23 | 230 | 8.0 | 14.5 | 0.00 | 0.15 | 0.15 | 51 | 1003.2 |
| 20260504235238 | 23 | 221 | 6.4 | 12.9 | 0.00 | 0.15 | 0.15 | 51 | 1003.2 |
| 20260504234736 | 23 | 215 | 8.0 | 11.3 | 0.00 | 0.15 | 0.15 | 51 | 1003.3 |
| 20260504234233 | 23 | 186 | 4.8 | 9.7 | 0.00 | 0.15 | 0.15 | 52 | 1003.2 |
| 20260504233729 | 23 | 242 | 4.8 | 11.3 | 0.00 | 0.15 | 0.15 | 52 | 1003.3 |
| 20260504233225 | 23 | 224 | 8.0 | 12.9 | 0.00 | 0.15 | 0.15 | 52 | 1003.2 |
| 20260504232723 | 23 | 240 | 3.2 | 9.7 | 0.00 | 0.15 | 0.15 | 54 | 1003.2 |
| 20260504232219 | 23 | 239 | 9.7 | 11.3 | 0.00 | 0.15 | 0.15 | 54 | 1003.4 |
| 20260504231716 | 22 | 231 | 3.2 | 6.4 | 0.00 | 0.15 | 0.15 | 56 | 1003.4 |
| 20260504231213 | 23 | 234 | 3.2 | 4.8 | 0.00 | 0.15 | 0.15 | 55 | 1003.6 |
| 20260504230709 | 23 | 230 | 3.2 | 9.7 | 0.00 | 0.15 | 0.15 | 53 | 1003.6 |
| 20260504230208 | 23 | 251 | 4.8 | 11.3 | 0.00 | 0.15 | 0.15 | 52 | 1003.8 |
| 20260504225706 | 23 | 211 | 9.7 | 17.7 | 0.00 | 0.15 | 0.15 | 51 | 1003.8 |
| 20260504225201 | 23 | 196 | 9.7 | 12.9 | 0.00 | 0.15 | 0.15 | 51 | 1003.8 |
| 20260504224659 | 24 | 269 | 4.8 | 11.3 | 0.00 | 0.15 | 0.15 | 53 | 1004.0 |
| 20260504224156 | 23 | 238 | 8.0 | 14.5 | 0.00 | 0.15 | 0.15 | 54 | 1004.0 |
| 20260504223653 | 23 | 225 | 8.0 | 17.7 | 0.00 | 0.15 | 0.15 | 54 | 1004.2 |
| 20260504223148 | 23 | 221 | 9.7 | 16.1 | 0.00 | 0.15 | 0.15 | 55 | 1004.0 |
| 20260504222645 | 24 | 188 | 6.4 | 11.3 | 0.00 | 0.15 | 0.15 | 54 | 1004.1 |
| 20260504222142 | 25 | 196 | 4.8 | 12.9 | 0.00 | 0.15 | 0.15 | 54 | 1004.1 |
| 20260504221640 | 25 | 246 | 9.7 | 16.1 | 0.00 | 0.15 | 0.15 | 53 | 1004.1 |
| 20260504221136 | 24 | 115 | 3.2 | 14.5 | 0.00 | 0.15 | 0.15 | 53 | 1004.1 |
| 20260504220633 | 24 | 235 | 6.4 | 12.9 | 0.00 | 0.15 | 0.15 | 54 | 1004.3 |
| 20260504220131 | 24 | 260 | 9.7 | 14.5 | 0.00 | 0.15 | 0.15 | 53 | 1004.2 |
| 20260504215626 | 24 | 230 | 4.8 | 6.4 | 0.00 | 0.15 | 0.15 | 55 | 1004.2 |
| 20260504215124 | 24 | 233 | 6.4 | 11.3 | 0.00 | 0.15 | 0.15 | 54 | 1004.3 |
| 20260504214620 | 23 | 187 | 4.8 | 12.9 | 0.00 | 0.15 | 0.15 | 55 | 1004.4 |
| 20260504214116 | 23 | 231 | 6.4 | 14.5 | 0.00 | 0.15 | 0.15 | 55 | 1004.3 |
| 20260504213613 | 23 | 234 | 9.7 | 16.1 | 0.00 | 0.15 | 0.15 | 54 | 1004.6 |
| 20260504213110 | 23 | 235 | 6.4 | 14.5 | 0.00 | 0.15 | 0.15 | 57 | 1004.6 |
| 20260504212606 | 23 | 245 | 9.7 | 17.7 | 0.00 | 0.15 | 0.15 | 56 | 1004.7 |
| 20260504212103 | 23 | 77 | 6.4 | 24.1 | 0.00 | 0.15 | 0.15 | 58 | 1004.5 |
| 20260504211600 | 22 | 202 | 8.0 | 16.1 | 0.00 | 0.15 | 0.15 | 61 | 1004.7 |
| 20260504211057 | 22 | 234 | 8.0 | 12.9 | 0.00 | 0.15 | 0.15 | 60 | 1004.8 |
| 20260504210554 | 22 | 245 | 6.4 | 12.9 | 0.00 | 0.15 | 0.15 | 63 | 1004.8 |
| 20260504210050 | 22 | 251 | 4.8 | 14.5 | 0.00 | 0.15 | 0.15 | 63 | 1004.9 |
| 20260504205548 | 21 | 194 | 1.6 | 6.4 | 0.00 | 0.15 | 0.15 | 64 | 1004.9 |
| 20260504205046 | 21 | 252 | 6.4 | 12.9 | 0.00 | 0.15 | 0.15 | 64 | 1005.0 |
| 20260504204544 | 22 | 243 | 3.2 | 14.5 | 0.00 | 0.15 | 0.15 | 63 | 1004.9 |
| 20260504204043 | 22 | 191 | 8.0 | 14.5 | 0.00 | 0.15 | 0.15 | 63 | 1005.1 |
| 20260504203540 | 22 | 255 | 4.8 | 9.7 | 0.00 | 0.15 | 0.15 | 68 | 1005.3 |
| 20260504203038 | 22 | 202 | 4.8 | 9.7 | 0.00 | 0.15 | 0.15 | 64 | 1005.2 |
| 20260504202533 | 22 | 79 | 3.2 | 9.7 | 0.00 | 0.15 | 0.15 | 63 | 1005.3 |
| 20260504202030 | 22 | 130 | 4.8 | 6.4 | 0.00 | 0.15 | 0.15 | 62 | 1005.3 |
| 20260504201527 | 21 | 180 | 3.2 | 3.2 | 0.00 | 0.15 | 0.15 | 68 | 1005.2 |
| 20260504201025 | 20 | 291 | 3.2 | 11.3 | 0.00 | 0.15 | 0.15 | 68 | 1005.6 |
| 20260504200521 | 20 | 202 | 3.2 | 4.8 | 0.00 | 0.15 | 0.15 | 70 | 1005.5 |
| 20260504200018 | 19 | 212 | 4.8 | 11.3 | 0.00 | 0.15 | 0.15 | 72 | 1005.2 |
| 20260504195514 | 19 | 282 | 1.6 | 11.3 | 0.00 | 0.15 | 0.15 | 69 | 1004.9 |
| 20260504195011 | 19 | 181 | 4.8 | 9.7 | 0.00 | 0.15 | 0.15 | 67 | 1004.7 |
| 20260504194507 | 19 | 75 | 8.0 | 12.9 | 0.00 | 0.15 | 0.15 | 70 | 1004.5 |
| 20260504194002 | 18 | 54 | 6.4 | 11.3 | 0.13 | 0.15 | 0.15 | 71 | 1005.0 |
| 20260504193500 | 17 | 188 | 3.2 | 11.3 | 0.13 | 0.15 | 0.15 | 73 | 1005.3 |
| 20260504192959 | 16 | 223 | 1.6 | 3.2 | 0.00 | 0.13 | 0.13 | 86 | 1006.8 |
| 20260504192456 | 17 | 221 | 3.2 | 3.2 | 0.00 | 0.13 | 0.13 | 84 | 1007.0 |
| 20260504191955 | 17 | 302 | 0.0 | 3.2 | 0.18 | 0.13 | 0.13 | 80 | 1006.7 |
| 20260504191452 | 17 | 180 | 1.6 | 1.6 | 0.30 | 0.10 | 0.10 | 80 | 1006.6 |
| 20260504190947 | 17 | 330 | 1.6 | 3.2 | 0.30 | 0.10 | 0.10 | 80 | 1006.7 |
| 20260504190443 | 17 | 288 | 1.6 | 6.4 | 0.18 | 0.05 | 0.05 | 81 | 1007.0 |
| 20260504185940 | 17 | 10 | 0.0 | 0.0 | 0.30 | 0.05 | 0.05 | 81 | 1007.6 |
| 20260504185437 | 17 | 66 | 0.0 | 0.0 | 0.13 | 0.03 | 0.03 | 77 | 1007.5 |
| 20260504184933 | 18 | 15 | 1.6 | 1.6 | 0.00 | 0.00 | 0.00 | 72 | 1007.6 |
| 20260504184429 | 18 | 5 | 0.0 | 1.6 | 0.00 | 0.00 | 0.00 | 67 | 1007.5 |
| 20260504183925 | 19 | 244 | 1.6 | 4.8 | 0.00 | 0.00 | 0.00 | 65 | 1007.6 |
| 20260504183422 | 19 | 237 | 3.2 | 4.8 | 0.00 | 0.00 | 0.00 | 65 | 1008.1 |
| 20260504182920 | 19 | 253 | 1.6 | 3.2 | 0.00 | 0.00 | 0.00 | 66 | 1007.9 |
| 20260504182417 | 19 | 29 | 0.0 | 3.2 | 0.00 | 0.00 | 0.00 | 66 | 1008.1 |
| 20260504181914 | 19 | 262 | 3.2 | 4.8 | 0.00 | 0.00 | 0.00 | 66 | 1007.6 |
| 20260504181411 | 19 | 245 | 3.2 | 6.4 | 0.00 | 0.00 | 0.00 | 65 | 1007.2 |
| 20260504180910 | 19 | 263 | 3.2 | 6.4 | 0.00 | 0.00 | 0.00 | 64 | 1007.1 |
| 20260504180408 | 19 | 181 | 6.4 | 11.3 | 0.00 | 0.00 | 0.00 | 65 | 1007.1 |
| 20260504175906 | 19 | 210 | 4.8 | 6.4 | 0.00 | 0.00 | 0.00 | 65 | 1007.0 |
| 20260504175403 | 19 | 205 | 6.4 | 12.9 | 0.00 | 0.00 | 0.00 | 65 | 1006.9 |
| 20260504174900 | 19 | 222 | 8.0 | 11.3 | 0.00 | 0.00 | 0.00 | 67 | 1006.9 |
| 20260504174358 | 19 | 164 | 6.4 | 12.9 | 0.00 | 0.00 | 0.00 | 66 | 1006.7 |
| 20260504173855 | 19 | 243 | 6.4 | 11.3 | 0.00 | 0.00 | 0.00 | 66 | 1006.5 |
| 20260504173351 | 19 | 212 | 4.8 | 9.7 | 0.00 | 0.00 | 0.00 | 66 | 1006.7 |
| 20260504172849 | 20 | 176 | 3.2 | 9.7 | 0.00 | 0.00 | 0.00 | 66 | 1006.7 |
| 20260504172345 | 20 | 222 | 3.2 | 12.9 | 0.00 | 0.00 | 0.00 | 65 | 1007.0 |
| 20260504171841 | 21 | 229 | 16.1 | 17.7 | 0.00 | 0.00 | 0.00 | 62 | 1007.3 |
| 20260504171338 | 20 | 276 | 3.2 | 12.9 | 0.00 | 0.00 | 0.00 | 65 | 1006.2 |
| 20260504170835 | 19 | 221 | 6.4 | 14.5 | 0.00 | 0.00 | 0.00 | 66 | 1007.1 |
| 20260504170332 | 19 | 256 | 11.3 | 14.5 | 0.00 | 0.00 | 0.00 | 69 | 1007.0 |
| 20260504160250 | 20 | 206 | 9.7 | 24.1 | 0.00 | 0.00 | 0.00 | 57 | 1008.5 |
| 20260504150716 | 21 | 245 | 9.7 | 20.9 | 0.00 | 0.00 | 0.00 | 51 | 1008.6 |
| 20260504150213 | 21 | 282 | 9.7 | 17.7 | 0.00 | 0.00 | 0.00 | 53 | 1008.4 |
| 20260504141142 | 20 | 204 | 8.0 | 11.3 | 0.00 | 0.00 | 0.00 | 61 | 1008.7 |
| 20260504140639 | 20 | 231 | 14.5 | 17.7 | 0.00 | 0.00 | 0.00 | 61 | 1008.6 |
| 20260504140134 | 19 | 252 | 11.3 | 14.5 | 0.00 | 0.00 | 0.00 | 63 | 1008.8 |
| 20260504130602 | 16 | 227 | 11.3 | 20.9 | 0.00 | 0.00 | 0.00 | 72 | 1009.1 |
| 20260504110450 | 14 | 217 | 0.0 | 3.2 | 0.00 | 0.00 | 0.00 | 77 | 1009.5 |
| 20260504100412 | 14 | 350 | 1.6 | 4.8 | 0.00 | 0.00 | 0.00 | 76 | 1009.1 |
| 20260504081806 | 15 | 338 | 0.0 | 3.2 | 0.00 | 0.00 | 0.00 | 79 | 1009.7 |
| 20260504081302 | 14 | 44 | 1.6 | 4.8 | 0.00 | 0.00 | 0.00 | 80 | 1009.5 |
| 20260504080758 | 14 | 326 | 1.6 | 3.2 | 0.00 | 0.00 | 0.00 | 82 | 1009.9 |
| 20260504080255 | 14 | 130 | 1.6 | 3.2 | 0.00 | 0.00 | 0.00 | 82 | 1009.8 |
| 20260504070223 | 14 | 32 | 1.6 | 1.6 | 0.00 | 0.00 | 0.00 | 80 | 1010.4 |
| 20260504060143 | 16 | 63 | 12.9 | 22.5 | 0.00 | 0.00 | 0.00 | 62 | 1011.4 |
| 20260504050611 | 17 | 187 | 9.7 | 12.9 | 0.00 | 0.00 | 0.00 | 59 | 1009.3 |
| 20260504050108 | 17 | 250 | 3.2 | 4.8 | 0.00 | 0.00 | 0.00 | 61 | 1009.7 |
| 20260504045605 | 17 | 213 | 1.6 | 3.2 | 0.00 | 0.00 | 0.00 | 60 | 1009.7 |
| 20260504045100 | 17 | 329 | 3.2 | 12.9 | 0.00 | 0.00 | 0.00 | 58 | 1009.2 |
| 20260504044558 | 16 | 205 | 12.9 | 14.5 | 0.00 | 0.00 | 0.00 | 59 | 1009.0 |
| 20260504044054 | 16 | 123 | 1.6 | 9.7 | 0.00 | 0.00 | 0.00 | 62 | 1009.1 |
| 20260504043552 | 17 | 316 | 1.6 | 1.6 | 0.00 | 0.00 | 0.00 | 61 | 1009.1 |
| 20260504043049 | 17 | 164 | 1.6 | 4.8 | 0.00 | 0.00 | 0.00 | 59 | 1009.4 |
| 20260504042546 | 17 | 229 | 4.8 | 14.5 | 0.00 | 0.00 | 0.00 | 58 | 1009.9 |
| 20260504042043 | 17 | 224 | 9.7 | 14.5 | 0.00 | 0.00 | 0.00 | 58 | 1010.1 |
| 20260504041539 | 16 | 233 | 8.0 | 12.9 | 0.00 | 0.00 | 0.00 | 58 | 1010.1 |
| 20260504041035 | 16 | 231 | 4.8 | 6.4 | 0.00 | 0.00 | 0.00 | 59 | 1010.2 |
| 20260504040533 | 17 | 202 | 6.4 | 9.7 | 0.00 | 0.00 | 0.00 | 58 | 1010.1 |
| 20260504040029 | 17 | 234 | 9.7 | 12.9 | 0.00 | 0.00 | 0.00 | 57 | 1010.4 |
| 20260504035526 | 17 | 215 | 11.3 | 14.5 | 0.00 | 0.00 | 0.00 | 56 | 1010.4 |
| 20260504035022 | 17 | 210 | 9.7 | 12.9 | 0.00 | 0.00 | 0.00 | 56 | 1010.3 |
| 20260504034520 | 17 | 204 | 6.4 | 9.7 | 0.00 | 0.00 | 0.00 | 56 | 1010.2 |
| 20260504034017 | 17 | 203 | 4.8 | 6.4 | 0.00 | 0.00 | 0.00 | 56 | 1010.5 |
| 20260504033515 | 17 | 226 | 3.2 | 4.8 | 0.00 | 0.00 | 0.00 | 56 | 1010.6 |
| 20260504033012 | 17 | 197 | 3.2 | 4.8 | 0.00 | 0.00 | 0.00 | 57 | 1010.5 |
| 20260504032509 | 17 | 300 | 1.6 | 4.8 | 0.00 | 0.00 | 0.00 | 57 | 1010.6 |
| 20260504032005 | 17 | 230 | 3.2 | 4.8 | 0.00 | 0.00 | 0.00 | 56 | 1010.6 |
| 20260504031502 | 17 | 231 | 0.0 | 1.6 | 0.00 | 0.00 | 0.00 | 58 | 1010.4 |
| 20260504030959 | 17 | 204 | 3.2 | 4.8 | 0.00 | 0.00 | 0.00 | 56 | 1010.5 |
| 20260504030456 | 17 | 237 | 3.2 | 4.8 | 0.00 | 0.00 | 0.00 | 56 | 1010.6 |
| 20260504025952 | 17 | 229 | 4.8 | 6.4 | 0.00 | 0.00 | 0.00 | 55 | 1010.6 |
| 20260504025449 | 17 | 231 | 6.4 | 6.4 | 0.00 | 0.00 | 0.00 | 54 | 1010.7 |
| 20260504024946 | 17 | 231 | 6.4 | 9.7 | 0.00 | 0.00 | 0.00 | 54 | 1010.4 |
| 20260504024443 | 18 | 228 | 4.8 | 14.5 | 0.00 | 0.00 | 0.00 | 53 | 1010.4 |
| 20260504023940 | 18 | 227 | 9.7 | 11.3 | 0.00 | 0.00 | 0.00 | 52 | 1010.4 |
| 20260504023436 | 18 | 229 | 6.4 | 14.5 | 0.00 | 0.00 | 0.00 | 52 | 1010.4 |